Tracking 17739 objects as of 27-June-2016
HD Live streaming from Space Station
objects crossing your sky now

COSMOS 1481 DEB

Track COSMOS 1481 DEB now!


NORAD ID: 14192
Int'l Code: 1983-070E
Perigee: 1,948.1 km
Apogee: 38,530.3 km
Inclination: 67.2 °
Period: 720.0 minutes
Semi major axis: 26610 km
RCS: 2.531 m2 (large)
Launch date: July 8, 1983
Source: Commonwealth of Independent States (former USSR) (CIS)
Launch site: PLESETSK MISSILE AND SPACE COMPLEX (PKMTR)

Note: This is SATELLITE DEBRIS
Your satellite tracking list
Your tracking list is empty





NASA's NSSDC Master Catalog

Two Line Element Set (TLE):
1 14192U 83070E   16177.85188468 +.00000113 +00000-0 +00000-0 0  9990
2 14192 067.2289 120.4963 6873704 009.0651 147.7980 02.03125849165613
Source of the keplerian elements: AFSPC

N2YO: 793